TimeCST,TemperatureF,Dew PointF,Humidity,Sea Level PressureIn,VisibilityMPH,Wind Direction,Wind SpeedMPH,Gust SpeedMPH,PrecipitationIn,Events,Conditions,WindDirDegrees,DateUTC
12:51 AM,66.9,63.0,87,30.06,10.0,NNE,5.8,-,N/A,,Clear,20,2012-11-05 06:51:00
1:51 AM,66.9,63.0,87,30.05,10.0,NE,5.8,-,N/A,,Clear,40,2012-11-05 07:51:00
2:51 AM,66.0,63.0,90,30.04,10.0,NE,6.9,-,N/A,,Partly Cloudy,50,2012-11-05 08:51:00
3:51 AM,66.9,63.0,87,30.04,10.0,NE,6.9,-,N/A,,Partly Cloudy,40,2012-11-05 09:51:00
4:35 AM,66.2,62.6,88,30.04,10.0,NNE,12.7,17.3,N/A,,Mostly Cloudy,30,2012-11-05 10:35:00
4:51 AM,66.0,62.1,87,30.05,10.0,NE,9.2,-,N/A,,Scattered Clouds,40,2012-11-05 10:51:00
5:51 AM,66.0,62.1,87,30.05,10.0,NE,8.1,-,N/A,,Partly Cloudy,50,2012-11-05 11:51:00
6:51 AM,66.9,63.0,87,30.06,9.0,NE,8.1,-,N/A,,Clear,40,2012-11-05 12:51:00
7:51 AM,68.0,62.1,81,30.07,10.0,ENE,9.2,-,N/A,,Clear,60,2012-11-05 13:51:00
8:51 AM,70.0,61.0,73,30.07,10.0,ENE,9.2,-,N/A,,Clear,70,2012-11-05 14:51:00
9:51 AM,71.1,62.1,73,30.07,10.0,ENE,8.1,-,N/A,,Clear,70,2012-11-05 15:51:00
10:51 AM,72.0,63.0,73,30.05,10.0,East,6.9,-,N/A,,Clear,90,2012-11-05 16:51:00
11:51 AM,73.9,62.1,66,30.02,10.0,ENE,5.8,-,N/A,,Partly Cloudy,70,2012-11-05 17:51:00
12:51 PM,75.9,63.0,64,29.99,10.0,SW,5.8,-,N/A,,Partly Cloudy,220,2012-11-05 18:51:00
1:51 PM,75.9,63.0,64,29.97,10.0,SSW,6.9,-,N/A,,Clear,210,2012-11-05 19:51:00
2:51 PM,75.0,63.0,66,29.96,10.0,Variable,4.6,-,N/A,,Scattered Clouds,0,2012-11-05 20:51:00
3:51 PM,73.9,63.0,68,29.96,10.0,WSW,8.1,-,N/A,,Clear,250,2012-11-05 21:51:00
4:51 PM,71.1,63.0,75,29.96,10.0,WSW,5.8,-,N/A,,Clear,240,2012-11-05 22:51:00
5:51 PM,70.0,64.0,81,29.96,10.0,SW,6.9,-,N/A,,Clear,230,2012-11-05 23:51:00
6:51 PM,70.0,64.0,81,29.96,10.0,SW,8.1,-,N/A,,Clear,230,2012-11-06 00:51:00
7:51 PM,71.1,64.9,81,29.96,10.0,SW,10.4,-,N/A,,Clear,230,2012-11-06 01:51:00
8:51 PM,71.1,64.9,81,29.95,10.0,WSW,4.6,-,N/A,,Partly Cloudy,250,2012-11-06 02:51:00
9:51 PM,72.0,64.9,78,29.96,10.0,WSW,10.4,-,N/A,,Mostly Cloudy,250,2012-11-06 03:51:00
10:32 PM,64.4,60.8,88,29.97,10.0,NNW,12.7,19.6,N/A,,Overcast,330,2012-11-06 04:32:00
10:51 PM,66.0,61.0,84,29.95,10.0,NW,10.4,-,N/A,,Mostly Cloudy,320,2012-11-06 04:51:00
11:01 PM,64.4,62.6,94,29.94,10.0,NW,6.9,-,N/A,,Scattered Clouds,320,2012-11-06 05:01:00
11:51 PM,64.9,63.0,93,29.93,10.0,NW,4.6,-,N/A,,Partly Cloudy,310,2012-11-06 05:51:00